"Pseudo-MPEC" for P11JsTZ

Created 2023 Sep 29 17:22:08 UT using Find_Orb

Click here for an explanation of pseudo-MPECs

 
 Astrometry: 
     P11JsTZ* C2023 09 147.\@x_'`$Astrometry??Q-YEbO?oU8^jZEqRU/`8KZV#s7dwV)NF51
     P11JsTZ  C2023 09 14MZEPy:+kxOKxG#S0k[R^L9Ip_Rredacted;4!%HFclick/Ga;l9jF51
     P11JsTZ  C2023 09 147kuE!m66F8Or,Qu7'j8-89p9T1+mV#_!S*#FtmlheregBst:O1AsF51
     P11JsTZ  C2023 09 14#(1py$JdforcrtgWv@;Sf5F3iQu=Eexplanation$Ngw+IbHfLg*F51

Station data:
(F51) Pan-STARRS 1, Haleakala  (N20.707234 W156.255910)  US/Hawaii.
   Observers J. Bulger, T. Lowe, A. Schultz, M. Willman. Measurers K.
   Chambers, S. Chastel, T. de Boer, L. Denneau, J. Fairlamb, H. Flewelling,
   M. Huber, C.-C. Lin, E. Magnier, Y. Ramanjooloo, R. Wainscoat, R. Weryk.
   1.8-m Ritchey-Chrétien + CCD.

Orbital elements:  P11JsTZ
   Perihelion 2023 May 4.01409 +/- 260 TT =  0:20:17 (JD 2460068.51409)
Epoch 2023 Sep 14.0 TT = JDT 2460201.5   Earth MOID: 0.1892   Ju: 0.0719
M   8.83328699 +/- 60               Ve: 0.0356   Sa: 0.7297      AutoNEOCP
n   0.06642272 +/- 0.143            Peri.  147.59109 +/- 70
a   6.03844213 +/- 8.65             Node    79.73652 +/- 53
e   0.8818826 +/- 0.273             Incl.   22.73796 +/- 24
P  14.84                   H 18.54  G  0.15   U 11.5  SR
q 0.71324492 +/- 0.93    Q 11.3636393 +/- 74.4            (J2000 ecliptic)
From 4 observations 2023 Sept. 14 (33.3 min); mean residual 0".10
Residuals in arcseconds: 
230914 F51  .03+  .08+    230914 F51  .01+  .16+    
230914 F51  .05-  .20-    230914 F51  .01+  .04-    

Ephemerides (geocentric):
Date (UTC) HH   RA             Dec           delta  r     elong  mag " sig PA
---- --------  ------------   ------------  ------ ------ -----  --- --------
2023 09 29 17  23 21 16.953   -43 12 48.31  1.5840 2.3776 132.4 22.4  20d  44
2023 09 29 18  23 21 13.955   -43 12 25.40  1.5847 2.3781 132.4 22.4  20d  44
2023 09 29 19  23 21 10.962   -43 12 02.46  1.5854 2.3786 132.4 22.4  20d  44
2023 09 29 20  23 21 07.974   -43 11 39.49  1.5861 2.3790 132.3 22.4  21d  44
2023 09 29 21  23 21 04.991   -43 11 16.50  1.5868 2.3795 132.3 22.4  21d  44
2023 09 29 22  23 21 02.012   -43 10 53.48  1.5875 2.3800 132.3 22.4  21d  44
2023 09 29 23  23 20 59.039   -43 10 30.43  1.5883 2.3805 132.3 22.4  21d  44
2023 09 30 00  23 20 56.070   -43 10 07.36  1.5890 2.3809 132.3 22.4  21d  44
2023 09 30 01  23 20 53.105   -43 09 44.26  1.5897 2.3814 132.2 22.4  21d  44
2023 09 30 02  23 20 50.146   -43 09 21.13  1.5904 2.3819 132.2 22.4  22d  44
2023 09 30 03  23 20 47.191   -43 08 57.98  1.5911 2.3824 132.2 22.4  22d  44
2023 09 30 04  23 20 44.242   -43 08 34.81  1.5918 2.3828 132.2 22.4  22d  44
2023 09 30 05  23 20 41.297   -43 08 11.60  1.5926 2.3833 132.1 22.4  22d  44
2023 09 30 06  23 20 38.356   -43 07 48.38  1.5933 2.3838 132.1 22.4  22d  44
2023 09 30 07  23 20 35.421   -43 07 25.12  1.5940 2.3842 132.1 22.4  22d  44
2023 09 30 08  23 20 32.490   -43 07 01.84  1.5947 2.3847 132.1 22.4  22d  44
2023 09 30 09  23 20 29.564   -43 06 38.54  1.5954 2.3852 132.1 22.4  22d  44
2023 09 30 10  23 20 26.643   -43 06 15.21  1.5962 2.3857 132.0 22.4  22d  44
2023 09 30 11  23 20 23.727   -43 05 51.85  1.5969 2.3861 132.0 22.4  23d  45
2023 09 30 12  23 20 20.815   -43 05 28.47  1.5976 2.3866 132.0 22.4  23d  45
2023 09 30 13  23 20 17.908   -43 05 05.06  1.5983 2.3871 132.0 22.4  23d  45
2023 09 30 14  23 20 15.006   -43 04 41.63  1.5990 2.3876 131.9 22.4  23d  45
2023 09 30 15  23 20 12.109   -43 04 18.17  1.5998 2.3880 131.9 22.4  23d  45
2023 09 30 16  23 20 09.216   -43 03 54.68  1.6005 2.3885 131.9 22.4  23d  45
2023 09 30 17  23 20 06.328   -43 03 31.17  1.6012 2.3890 131.9 22.4  23d  45
2023 09 30 18  23 20 03.445   -43 03 07.64  1.6019 2.3895 131.8 22.4  23d  45
2023 09 30 19  23 20 00.567   -43 02 44.08  1.6026 2.3899 131.8 22.4  23d  46
2023 09 30 20  23 19 57.694   -43 02 20.50  1.6034 2.3904 131.8 22.4  23d  46
2023 09 30 21  23 19 54.825   -43 01 56.89  1.6041 2.3909 131.8 22.4  23d  46
2023 09 30 22  23 19 51.961   -43 01 33.25  1.6048 2.3914 131.8 22.4  24d  46
2023 09 30 23  23 19 49.102   -43 01 09.59  1.6055 2.3918 131.7 22.4  24d  46
2023 10 01 00  23 19 46.247   -43 00 45.91  1.6063 2.3923 131.7 22.4  24d  46
2023 10 01 01  23 19 43.398   -43 00 22.20  1.6070 2.3928 131.7 22.4  24d  46
2023 10 01 02  23 19 40.553   -42 59 58.47  1.6077 2.3932 131.7 22.4  24d  46
2023 10 01 03  23 19 37.713   -42 59 34.71  1.6084 2.3937 131.6 22.4  24d  47
2023 10 01 04  23 19 34.877   -42 59 10.93  1.6092 2.3942 131.6 22.4  24d  47
2023 10 01 05  23 19 32.047   -42 58 47.12  1.6099 2.3947 131.6 22.4  24d  47
2023 10 01 06  23 19 29.221   -42 58 23.29  1.6106 2.3951 131.6 22.4  24d  47
2023 10 01 07  23 19 26.400   -42 57 59.43  1.6113 2.3956 131.5 22.4  24d  47
2023 10 01 08  23 19 23.583   -42 57 35.55  1.6121 2.3961 131.5 22.4  24d  47
2023 10 01 09  23 19 20.772   -42 57 11.64  1.6128 2.3966 131.5 22.4  24d  47
2023 10 01 10  23 19 17.965   -42 56 47.71  1.6135 2.3970 131.5 22.4  24d  47
2023 10 01 11  23 19 15.163   -42 56 23.76  1.6143 2.3975 131.4 22.4  24d  47
2023 10 01 12  23 19 12.365   -42 55 59.78  1.6150 2.3980 131.4 22.4  24d  47
2023 10 01 13  23 19 09.572   -42 55 35.78  1.6157 2.3984 131.4 22.4  24d  48
2023 10 01 14  23 19 06.784   -42 55 11.75  1.6164 2.3989 131.4 22.4  24d  48
2023 10 01 15  23 19 04.001   -42 54 47.70  1.6172 2.3994 131.4 22.4  24d  48
2023 10 01 16  23 19 01.223   -42 54 23.63  1.6179 2.3999 131.3 22.4  25d  48